Back to catalog

FENGYUN 1C DEB

AliveSSO
NORAD 31819·DEBRIS·🇨🇳 China

Launched May 10, 1999 from Taiyuan Satellite Launch Center

Loading…

Next Passes (next 24 hours)

TLE

AgingSource: Space-Track

Epoch: Sep 9, 2026, 18:35 UTC

1 31819U 99025CHH 26252.77463409  .00000426  00000-0  17283-3 0  9990
2 31819  98.4939 242.4795 0085586 239.9709 119.2963 14.30633680  5527

Track FENGYUN 1C DEB in real time with AllMySat

Download on the App Store